Weather in Lukyanovka

Russia / Omsk Oblast     54°18′53″N   73°03′20″E
temp.,
°C
wind,
m/s
gust,
m/s
humid.,
%
clouds,
%
prec.,
mm/h
press.,
hPa
HPBL,
m
8 march, mon
mon800:00+1ssw101889100 1.5 1004771
03:00+1ssw101887100 0.1 1002868
06:00−1ssw101695100 1.3 1001888
09:00−7w81291100 1.0 1003528
12:00−9wnw71190100 1.1 1008518
15:00−9wnw6108988 0.0 1012519
18:00−11wsw5109066 0.0 1016311
21:00−12sw5119197 0.0 1017328
9 march, tue
tue900:00−13sw5128791 0.0 1018254
03:00−14sw613851 0.0 1018279
06:00−14ssw6138712 0.0 1018309
09:00−13ssw7129080 0.0 1018309
12:00−10ssw7128873 0.0 1018505
15:00−6ssw8138298 0.0 1016654
18:00−7ssw7148270 0.0 1015497
21:00−9ssw6148481 0.0 1015343
10 march, wed
wed1000:00−9sw5128789 0.0 1016303
03:00−10sw4791100 0.0 1015153
06:00−10sw2393100 0.0 101444
09:00−9sse3595100 0.1 1012170
12:00−8ese4691100 0.4 1010310
15:00−8e5793100 0.5 1004406
18:00−8ene3595100 2.7 1000372
21:00−10wnw349694 0.4 100062
11 march, thu
thu1100:00−12wsw5109586 0.5 1003173
03:00−11sw5119578 0.0 1003241
06:00−8sw7149179 0.2 1005629
09:00−12sw7158770 0.0 1007492
12:00−11sw8148135 0.0 1009672
15:00−9sw712785 0.0 10101012
18:00−10sw6128546 0.0 1009424
21:00−12wsw51387100 0.1 1010449
12 march, fri
fri1200:00−17wsw6148998 0.1 1012465
03:00−17wsw7149288 0.1 1014547
06:00−16w7129394 0.1 1017528
09:00−21w61194100 0.1 1021328
12:00−20w578758 0.1 1024298
15:00−18wsw47850 0.0 1026327
18:00−18sw48940 0.0 1026186
21:00−21sw44950 0.0 102854